Eastsound, WA

6:18 PM PDT on July 23, 2017 (GMT -0700)
Orcas Island

Weather History for KORS - January, 2014

Change the Weather History Date:

Friday, January 3, 2014

  Actual Average (KFHR) Record (KFHR)
Temperature  
Mean Temperature 38 °F -  
Max Temperature 44 °F 43 °F 53 °F (2003)
Min Temperature 32 °F 35 °F 17 °F (2004)
Degree Days  
Heating Degree Days 27    
Moisture  
Dew Point 35 °F    
Average Humidity 84    
Maximum Humidity 100    
Minimum Humidity 61    
Precipitation  
Precipitation 0.00 in - - ()
Sea Level Pressure  
Sea Level Pressure 30.18 in    
Wind  
Wind Speed 4 mph (West)    
Max Wind Speed 17 mph    
Max Gust Speed 23 mph    
Visibility 10 miles    
Events      
Averages and records for this station are not official NWS values.
T = Trace of Precipitation, MM = Missing Value Source: NWS Daily Summary

Daily Weather History Graph

Daily Weather History Graph

Search for Another Location

Airport or City:

Trip Planner

Search our weather history database for the weather conditions in past years. The results will help you decide how hot, cold, wet, or windy it might be!

Date:

Astronomy

Jan. 03, 2014 Rise Set
Actual Time 8:04 AM PST 4:28 PM PST
Civil Twilight 7:27 AM PST 5:05 PM PST
Nautical Twilight 6:47 AM PST 5:45 PM PST
Astronomical Twilight 6:09 AM PST 6:23 PM PST
Moon 9:18 AM PST (1/3) 8:02 PM PST (1/3)
Length of Visible Light 9h 37m
Length of Day
8h 24m
Waxing Crescent, 8% of the Moon is Illuminated
Jan 3
Waxing Crescent
Jan 7
First Quarter
Jan 15
Full
Jan 23
Last Quarter
Jan 30
New

Hourly Weather History & Observations

Time (PST) Temp. Windchill Dew Point Humidity Pressure Visibility Wind Dir Wind Speed Gust Speed Precip Events Conditions
12:15 AM 39.2 °F - 37.4 °F 93% 29.96 in 10.0 mi Calm Calm - N/A   Scattered Clouds
12:35 AM 39.2 °F 37.0 °F 37.4 °F 93% 29.96 in 10.0 mi SSW 3.5 mph - N/A   Mostly Cloudy
12:55 AM 37.4 °F 32.8 °F 37.4 °F 100% 29.97 in 10.0 mi SSW 5.8 mph - N/A   Partly Cloudy
1:15 AM 37.4 °F - 37.4 °F 100% 29.99 in 10.0 mi Calm Calm - N/A   Clear
1:35 AM 37.4 °F - 37.4 °F 100% 30.00 in 10.0 mi Calm Calm - N/A   Clear
1:55 AM 37.4 °F 34.9 °F 35.6 °F 93% 30.01 in 10.0 mi SSW 3.5 mph - N/A   Clear
2:15 AM 37.4 °F 33.8 °F 35.6 °F 93% 30.02 in 10.0 mi SW 4.6 mph - N/A   Clear
2:35 AM 41.0 °F 37.1 °F 35.6 °F 81% 30.03 in 10.0 mi West 5.8 mph - N/A   Clear
2:55 AM 41.0 °F 39.0 °F 35.6 °F 81% 30.04 in 10.0 mi SW 3.5 mph - N/A   Clear
3:15 AM 39.2 °F 35.9 °F 35.6 °F 87% 30.05 in 10.0 mi South 4.6 mph - N/A   Clear
3:35 AM 39.2 °F 35.0 °F 35.6 °F 87% 30.05 in 10.0 mi SSW 5.8 mph - N/A   Clear
3:55 AM 39.2 °F 35.0 °F 35.6 °F 87% 30.05 in 10.0 mi South 5.8 mph - N/A   Clear
4:15 AM 37.4 °F 32.8 °F 35.6 °F 93% 30.06 in 10.0 mi SSW 5.8 mph - N/A   Clear
4:35 AM 37.4 °F 33.8 °F 35.6 °F 93% 30.07 in 10.0 mi South 4.6 mph - N/A   Clear
4:55 AM 39.2 °F - 35.6 °F 87% 30.08 in 10.0 mi Calm Calm - N/A   Clear
5:15 AM 37.4 °F - 35.6 °F 93% 30.08 in 10.0 mi Calm Calm - N/A   Clear
5:35 AM 37.4 °F 34.9 °F 35.6 °F 93% 30.08 in 10.0 mi SW 3.5 mph - N/A   Clear
5:55 AM 35.6 °F 32.8 °F 33.8 °F 93% 30.09 in 10.0 mi South 3.5 mph - N/A   Clear
6:15 AM 35.6 °F 32.8 °F 33.8 °F 93% 30.10 in 10.0 mi South 3.5 mph - N/A   Clear
6:35 AM 33.8 °F - 32.0 °F 93% 30.11 in 10.0 mi North - - N/A   Clear
6:55 AM 33.8 °F 28.6 °F 33.8 °F 100% 30.11 in 10.0 mi SSW 5.8 mph - N/A   Clear
7:15 AM 33.8 °F 28.6 °F 33.8 °F 100% 30.11 in 10.0 mi South 5.8 mph - N/A   Clear
7:35 AM 32.0 °F 27.5 °F 32.0 °F 100% 30.12 in 10.0 mi South 4.6 mph - N/A   Clear
7:55 AM 33.8 °F 29.6 °F 33.8 °F 100% 30.13 in 10.0 mi South 4.6 mph - N/A   Clear
8:15 AM 33.8 °F 29.6 °F 33.8 °F 100% 30.14 in 10.0 mi SSW 4.6 mph - N/A   Clear
8:35 AM 35.6 °F - 33.8 °F 93% 30.13 in 10.0 mi Calm Calm - N/A   Clear
8:55 AM 33.8 °F - 32.0 °F 93% 30.14 in 8.0 mi Calm Calm - N/A   Clear
9:15 AM 37.4 °F 34.9 °F 35.6 °F 93% 30.14 in 10.0 mi South 3.5 mph - N/A   Clear
9:35 AM 37.4 °F 34.9 °F 35.6 °F 93% 30.14 in 10.0 mi South 3.5 mph - N/A   Clear
9:55 AM 39.2 °F - 35.6 °F 87% 30.15 in 10.0 mi Calm Calm - N/A   Clear
10:15 AM 41.0 °F 37.1 °F 35.6 °F 81% 30.15 in 10.0 mi South 5.8 mph - N/A   Clear
10:35 AM 41.0 °F 39.0 °F 35.6 °F 81% 30.16 in 10.0 mi South 3.5 mph - N/A   Clear
10:55 AM 41.0 °F 38.0 °F 37.4 °F 87% 30.16 in 10.0 mi SSW 4.6 mph - N/A   Partly Cloudy
11:15 AM 42.8 °F 41.1 °F 37.4 °F 81% 30.16 in 10.0 mi SSW 3.5 mph - N/A   Partly Cloudy
11:35 AM 44.6 °F 42.2 °F 32.0 °F 61% 30.16 in 10.0 mi NNW 4.6 mph - N/A   Clear
11:55 AM 44.6 °F - 32.0 °F 61% 30.17 in 10.0 mi Calm Calm - N/A   Clear
12:15 PM 44.6 °F 42.2 °F 32.0 °F 61% 30.17 in 10.0 mi NW 4.6 mph - N/A   Mostly Cloudy
12:35 PM 44.6 °F - 32.0 °F 61% 30.18 in 10.0 mi Calm Calm - N/A   Overcast
12:55 PM 44.6 °F - 32.0 °F 61% 30.18 in 10.0 mi Calm Calm - N/A   Overcast
1:15 PM 44.6 °F 40.7 °F 32.0 °F 61% 30.18 in 10.0 mi NNW 6.9 mph - N/A   Overcast
1:35 PM 44.6 °F - 32.0 °F 61% 30.19 in 10.0 mi Calm Calm - N/A   Overcast
1:55 PM 44.6 °F 39.7 °F 32.0 °F 61% 30.20 in 10.0 mi NNW 9.2 mph 18.4 mph N/A   Overcast
2:15 PM 44.6 °F 38.8 °F 35.6 °F 71% 30.20 in 10.0 mi NNW 11.5 mph 20.7 mph N/A   Overcast
2:35 PM 44.6 °F 38.8 °F 35.6 °F 71% 30.20 in 10.0 mi NW 11.5 mph 18.4 mph N/A   Mostly Cloudy
2:55 PM 44.6 °F 38.1 °F 35.6 °F 71% 30.21 in 10.0 mi NNW 13.8 mph 23.0 mph N/A   Overcast
3:15 PM 44.6 °F 37.8 °F 35.6 °F 71% 30.22 in 10.0 mi NNW 15.0 mph 20.7 mph N/A   Mostly Cloudy
3:35 PM 44.6 °F 37.2 °F 35.6 °F 71% 30.22 in 10.0 mi NNW 17.3 mph 21.9 mph N/A   Partly Cloudy
3:55 PM 44.6 °F 37.8 °F 35.6 °F 71% 30.23 in 10.0 mi NNW 15.0 mph 20.7 mph N/A   Partly Cloudy
4:15 PM 44.6 °F 38.4 °F 35.6 °F 71% 30.24 in 10.0 mi NNW 12.7 mph 19.6 mph N/A   Clear
4:35 PM 44.6 °F 38.1 °F 37.4 °F 76% 30.24 in 10.0 mi North 13.8 mph 18.4 mph N/A   Scattered Clouds
4:55 PM 44.6 °F 37.8 °F 37.4 °F 76% 30.25 in 10.0 mi North 15.0 mph 19.6 mph N/A   Mostly Cloudy
5:15 PM 44.6 °F 38.4 °F 37.4 °F 76% 30.25 in 10.0 mi North 12.7 mph 17.3 mph N/A   Partly Cloudy
5:35 PM 44.6 °F 38.1 °F 35.6 °F 71% 30.26 in 10.0 mi NNW 13.8 mph - N/A   Clear
5:55 PM 44.6 °F 37.4 °F 35.6 °F 71% 30.26 in 10.0 mi North 16.1 mph 20.7 mph N/A   Partly Cloudy
6:15 PM 44.6 °F 37.4 °F 35.6 °F 71% 30.26 in 10.0 mi North 16.1 mph - N/A   Clear
6:35 PM 44.6 °F 37.8 °F 35.6 °F 71% 30.27 in 10.0 mi North 15.0 mph 19.6 mph N/A   Clear
6:55 PM 44.6 °F 37.4 °F 37.4 °F 76% 30.28 in 10.0 mi North 16.1 mph - N/A   Clear
7:15 PM 42.8 °F 36.2 °F 37.4 °F 81% 30.29 in 10.0 mi North 12.7 mph 16.1 mph N/A   Clear
7:35 PM 42.8 °F 35.8 °F 37.4 °F 81% 30.30 in 10.0 mi North 13.8 mph - N/A   Clear
7:55 PM 44.6 °F 39.2 °F 37.4 °F 76% 30.30 in 10.0 mi North 10.4 mph - N/A   Clear
8:15 PM 42.8 °F 38.6 °F 37.4 °F 81% 30.31 in 10.0 mi North 6.9 mph - N/A   Clear
8:35 PM 41.0 °F - 37.4 °F 87% 30.31 in 10.0 mi Calm Calm - N/A   Scattered Clouds
8:55 PM 39.2 °F - 37.4 °F 93% 30.31 in 10.0 mi Calm Calm - N/A   Mostly Cloudy
9:15 PM 39.2 °F - 37.4 °F 93% 30.32 in 10.0 mi Calm Calm - N/A   Overcast
9:35 PM 39.2 °F - 37.4 °F 93% 30.34 in 10.0 mi Calm Calm - N/A   Overcast
9:55 PM 39.2 °F - 37.4 °F 93% 30.33 in 10.0 mi Calm Calm - N/A   Overcast
10:15 PM 37.4 °F - 35.6 °F 93% 30.33 in 10.0 mi Calm Calm - N/A   Scattered Clouds
10:35 PM 35.6 °F - 35.6 °F 100% 30.34 in 10.0 mi Calm Calm - N/A   Clear
10:55 PM 35.6 °F - 35.6 °F 100% 30.35 in 9.0 mi Calm Calm - N/A   Clear
11:15 PM 35.6 °F - 35.6 °F 100% 30.36 in 7.0 mi Calm Calm - N/A   Clear
11:35 PM 33.8 °F - 33.8 °F 100% 30.36 in 5.0 mi Calm Calm - N/A   Scattered Clouds
11:55 PM 33.8 °F - 32.0 °F 93% 30.36 in 5.0 mi Calm Calm - N/A   Mostly Cloudy